Location: Trebic
(49.2170°N, 15.8830°E)
Time: 22:17:00
(UTC+02:00)

Transit 2A Rocket - Pass Details

Date: 01 August 2019
Orbit: 590 x 913 km, 66.7° (Epoch: 16 August)

Event Time Altitude Azimuth Distance (km) Brightness Sun altitude
Rises 11:39:41 0° 307° (NW) 3,064 7.8 54.6°
Reaches altitude 10° 11:44:27 10° 265° (W) 2,048 7.2 55.0°
Maximum altitude 11:44:59 10° 258° (WSW) 2,026 7.2 55.1°
Drops below altitude 10° 11:45:30 10° 251° (WSW) 2,028 7.2 55.1°
Sets 11:50:00 0° 208° (SSW) 2,860 8.2 55.5°
